Vorticity
5 5 6 6 7 3 2 2 3 3 3 7 1 -1 6 3 3 6 9 8 8 10
7 2 5 2 1 7 7 1 16 -5 9 15 2 -5 6 4 6 6 7 8 7 9
7 7 3 -0 6 4 3 -2 3 25 27 -5 14 4 3 7 7 9 12 7 9 8
3 5 4 7 3 3 6 20 -1 15 -1 17 5 3 8 9 7 7 8 8 7 5
7 1 3 -0 -3 46 17 63 -33 11 8 17 4 8 3 7 6 9 8 7 6 6
23 3 33 61 14 -2 4 1 19 8 13 6 1 5 7 4 8 7 8 6 6 4
3 6 5 8 2 6 4 7 8 6 1 4 5 7 5 6 10 8 6 7 3 2
7 7 5 6 7 6 7 7 5 7 6 3 8 9 8 11 9 6 6 4 3 2
6 6 7 5 7 8 8 7 8 5 6 10 10 8 10 8 6 4 4 4 3 3
5 5 6 6 7 9 10 10 10 11 13 11 10 9 7 5 4 3 4 4 4 4
7 8 8 8 8 10 10 10 10 9 8 8 6 6 5 4 4 5 6 6 3 2
7 8 8 9 10 8 8 8 8 8 8 5 5 6 6 5 5 5 5 3 1 5
6 5 8 10 10 8 8 7 9 10 6 4 6 7 6 6 7 3 3 3 9 7
4 9 11 9 7 8 8 10 11 10 7 7 7 7 7 7 3 6 9 8 8 12
Height
5735 5734 5735 5737 5737 5736 5737 5737 5738 5739 5738 5736 5734 5734 5733 5732 5730 5727 5725 5722 5721 5717
5732 5732 5733 5734 5734 5733 5733 5732 5732 5730 5728 5727 5728 5729 5726 5724 5721 5719 5716 5713 5710 5707
5725 5726 5725 5725 5727 5727 5726 5726 5724 5717 5721 5718 5717 5716 5714 5712 5711 5708 5705 5702 5700 5696
5719 5719 5719 5718 5718 5716 5714 5710 5710 5711 5709 5708 5709 5706 5705 5703 5700 5698 5695 5693 5689 5686
5713 5711 5709 5708 5704 5705 5700 5707 5706 5701 5700 5700 5699 5698 5696 5693 5690 5688 5685 5681 5678 5674
5704 5701 5698 5685 5687 5700 5696 5699 5697 5694 5692 5692 5692 5690 5687 5683 5680 5677 5674 5671 5667 5662
5698 5697 5692 5694 5693 5693 5692 5692 5691 5688 5687 5685 5683 5679 5674 5671 5669 5666 5662 5658 5654 5649
5696 5694 5690 5689 5685 5684 5685 5682 5679 5676 5675 5672 5669 5666 5664 5661 5657 5653 5649 5645 5641 5636
5688 5685 5683 5681 5677 5676 5673 5672 5670 5667 5664 5661 5659 5657 5654 5650 5646 5642 5637 5632 5627 5622
5680 5678 5676 5673 5671 5669 5666 5663 5660 5658 5655 5652 5650 5645 5640 5636 5632 5628 5623 5619 5614 5609
5668 5665 5663 5661 5660 5658 5655 5652 5649 5647 5643 5639 5634 5631 5627 5623 5619 5615 5610 5606 5601 5594
5661 5658 5655 5653 5650 5647 5644 5642 5639 5635 5631 5627 5624 5620 5616 5612 5607 5602 5597 5592 5586 5579
5649 5647 5645 5643 5640 5637 5635 5631 5627 5623 5620 5616 5613 5608 5604 5598 5593 5589 5583 5576 5568 5561
5639 5637 5634 5632 5630 5627 5623 5619 5615 5612 5609 5605 5600 5595 5591 5586 5580 5573 5566 5559 5552 5545